Weather History for Rexburg, ID

Change the Weather History Date:

Monday, April 8, 2013

  Actual Average Record
Temperature  
Mean Temperature 34 °F 42 °F  
Max Temperature 40 °F 54 °F 67 °F (2014)
Min Temperature 28 °F 30 °F 21 °F (2000)
Degree Days  
Heating Degree Days 31 23  
Month to date heating degree days 151 192  
Since 1 July heating degree days 6811 7121  
Cooling Degree Days 0 0  
Month to date cooling degree days 0 0  
Year to date cooling degree days 0 0  
Moisture  
Dew Point 28 °F    
Average Humidity 69    
Maximum Humidity 92    
Minimum Humidity 46    
Precipitation  
Precipitation 0.03 in 0.04 in 0.56 in (1978)
Month to date precipitation 0.28 0.35  
Year to date precipitation 2.72 2.98  
Sea Level Pressure  
Sea Level Pressure 29.65 in    
Wind  
Wind Speed 16 mph (NNE)    
Max Wind Speed 32 mph    
Max Gust Speed 44 mph    
Visibility 9 miles    
Events Rain , Snow    
T = Trace of Precipitation, MM = Missing Value Source: NWS Daily Summary

Daily Weather History Graph

Daily Weather History Graph

Search for Another Location

Airport:

Trip Planner

Search our weather history database for the weather conditions in past years. The results will help you decide how hot, cold, wet, or windy it might be!

Date:

Astronomy

Apr. 08, 2013 Rise Set
Actual Time 6:55 AM MDT 8:02 PM MDT
Civil Twilight 6:26 AM MDT 8:32 PM MDT
Nautical Twilight 5:51 AM MDT 9:07 PM MDT
Astronomical Twilight 5:13 AM MDT 9:45 PM MDT
Moon 5:50 AM MDT (4/8) 6:39 PM MDT (4/8)
Length of Visible Light 14h 06m
Length of Day
13h 07m
Waning Crescent, 3% of the Moon is Illuminated
Apr 8
Waning Crescent
Apr 10
New
Apr 18
First Quarter
Apr 25
Full
May 2
Last Quarter

Hourly Weather History & Observations

Time (MDT) Temp. Windchill Dew Point Humidity Pressure Visibility Wind Dir Wind Speed Gust Speed Precip Events Conditions
12:53 AM 37.0 °F - 32.0 °F 82% 29.64 in 10.0 mi Calm Calm - N/A   Mostly Cloudy
1:53 AM 37.0 °F 33.3 °F 32.0 °F 82% 29.63 in 10.0 mi SW 4.6 mph - N/A   Mostly Cloudy
2:12 AM 37.4 °F 32.1 °F 33.8 °F 87% 29.64 in 10.0 mi SW 6.9 mph - N/A   Mostly Cloudy
2:27 AM 37.4 °F 32.1 °F 33.8 °F 87% 29.64 in 10.0 mi SW 6.9 mph - N/A   Overcast
2:53 AM 36.0 °F - 33.1 °F 89% 29.62 in 10.0 mi Calm Calm - N/A   Mostly Cloudy
3:07 AM 37.4 °F 34.9 °F 33.8 °F 87% 29.63 in 10.0 mi SE 3.5 mph - N/A   Mostly Cloudy
3:53 AM 37.0 °F 34.5 °F 33.1 °F 86% 29.61 in 10.0 mi SE 3.5 mph - N/A   Overcast
4:24 AM 37.4 °F 34.9 °F 33.8 °F 87% 29.62 in 10.0 mi SE 3.5 mph - N/A   Overcast
4:53 AM 36.0 °F - 33.1 °F 89% 29.59 in 10.0 mi Calm Calm - N/A   Overcast
5:02 AM 35.6 °F 32.8 °F 33.8 °F 93% 29.61 in 10.0 mi ESE 3.5 mph - N/A   Overcast
5:53 AM 36.0 °F - 34.0 °F 93% 29.59 in 9.0 mi Calm Calm - 0.01 in Rain Light Rain
6:06 AM 35.6 °F - 33.8 °F 93% 29.61 in 9.0 mi Calm Calm - 0.00 in Rain Light Rain
6:13 AM 35.6 °F 32.8 °F 33.8 °F 93% 29.60 in 8.0 mi East 3.5 mph - 0.00 in Rain Light Rain
6:38 AM 35.6 °F 30.7 °F 33.8 °F 93% 29.60 in 9.0 mi ENE 5.8 mph - 0.01 in Rain Light Rain
6:53 AM 34.0 °F 27.2 °F 33.1 °F 96% 29.58 in 8.0 mi NE 8.1 mph - 0.01 in Snow Light Snow
7:14 AM 33.8 °F 27.7 °F 33.8 °F 100% 29.59 in 9.0 mi NNE 6.9 mph - 0.00 in   Overcast
7:53 AM 35.1 °F 31.0 °F 33.1 °F 92% 29.62 in 10.0 mi North 4.6 mph - 0.00 in   Overcast
8:18 AM 35.6 °F 31.7 °F 33.8 °F 93% 29.61 in 7.0 mi North 4.6 mph - 0.01 in Snow Light Snow
8:39 AM 35.6 °F 29.9 °F 33.8 °F 93% 29.61 in 8.0 mi North 6.9 mph - 0.01 in Snow Light Snow
8:51 AM 33.8 °F 25.3 °F 30.2 °F 87% 29.62 in 2.5 mi North 11.5 mph - 0.01 in Snow Light Snow
8:53 AM 34.0 °F 26.6 °F 30.9 °F 89% 29.63 in 2.0 mi North 9.2 mph - 0.01 in Snow Light Snow
9:08 AM 33.8 °F 25.8 °F 30.2 °F 87% 29.61 in 4.0 mi North 10.4 mph - 0.00 in Snow Light Snow
9:34 AM 35.6 °F 28.0 °F 28.4 °F 75% 29.61 in 10.0 mi North 10.4 mph - 0.00 in   Overcast
9:46 AM 35.6 °F 28.6 °F 28.4 °F 75% 29.61 in 5.0 mi North 9.2 mph - 0.00 in Snow Light Snow
9:53 AM 35.1 °F 27.9 °F 30.0 °F 82% 29.62 in 3.0 mi NNE 9.2 mph - 0.00 in Snow Light Snow
10:53 AM 37.9 °F 29.2 °F 30.0 °F 73% 29.62 in 10.0 mi NNE 15.0 mph 19.6 mph 0.00 in   Overcast
11:37 AM 39.2 °F 29.8 °F 28.4 °F 65% 29.61 in 10.0 mi NNE 18.4 mph 25.3 mph N/A   Overcast
11:53 AM 39.0 °F 29.6 °F 27.0 °F 62% 29.62 in 10.0 mi NNE 18.4 mph 26.5 mph N/A   Overcast
12:53 PM 39.0 °F 29.6 °F 25.0 °F 57% 29.62 in 10.0 mi NNE 18.4 mph 28.8 mph N/A   Overcast
1:53 PM 39.9 °F 30.8 °F 25.0 °F 55% 29.61 in 10.0 mi North 18.4 mph 29.9 mph 0.00 in   Overcast
2:53 PM 39.0 °F 29.3 °F 21.9 °F 50% 29.64 in 10.0 mi NNE 19.6 mph 31.1 mph N/A   Overcast
3:53 PM 37.0 °F 27.4 °F 21.0 °F 52% 29.66 in 10.0 mi North 17.3 mph 29.9 mph N/A   Overcast
4:53 PM 37.9 °F 26.6 °F 19.9 °F 48% 29.67 in 10.0 mi NNE 25.3 mph 35.7 mph N/A   Overcast
5:53 PM 36.0 °F 23.0 °F 19.9 °F 52% 29.70 in 10.0 mi NNE 29.9 mph 40.3 mph N/A   Overcast
6:53 PM 35.1 °F 24.1 °F 19.0 °F 52% 29.73 in 10.0 mi North 19.6 mph 39.1 mph N/A   Overcast
7:53 PM 33.1 °F 20.1 °F 16.0 °F 50% 29.77 in 10.0 mi NNE 25.3 mph 40.3 mph N/A   Mostly Cloudy
8:53 PM 30.9 °F 16.9 °F 15.1 °F 52% 29.80 in 10.0 mi NNE 26.5 mph 40.3 mph N/A   Clear
9:53 PM 30.0 °F 16.0 °F 15.1 °F 54% 29.82 in 10.0 mi NNE 25.3 mph 38.0 mph N/A   Clear
10:53 PM 28.9 °F 14.0 °F 12.9 °F 51% 29.82 in 10.0 mi NNE 27.6 mph 40.3 mph N/A   Mostly Cloudy
11:53 PM 28.9 °F 15.1 °F 10.9 °F 47% 29.83 in 10.0 mi NNE 23.0 mph 36.8 mph N/A   Clear